KN2B-13 Weather Reports


time (UTC)temp
C
wind
direction
speed
KPH
gust
KPH
rain 1hr
cm
rain 24hr
cm
rain mn
cm
humidity
%
barometer
mb
20260504080957 4 257 0.0 0.0 0.00 0.00 0.00 73 1012.6
20260504050001 5 243 0.0 3.2 0.00 0.00 0.00 66 1011.9
20260504045000 5 251 1.6 4.8 0.00 0.00 0.00 67 1011.9
20260504044000 5 248 1.6 3.2 0.00 0.00 0.00 70 1011.8
20260504042001 4 252 0.0 0.0 0.00 0.00 0.00 73 1011.6
20260504041000 3 255 0.0 0.0 0.00 0.00 0.00 77 1011.6
20260504040000 3 264 0.0 0.0 0.00 0.00 0.00 79 1011.5
20260504035000 3 264 0.0 0.0 0.00 0.00 0.00 79 1011.5
20260504033959 3 264 0.0 0.0 0.00 0.00 0.00 76 1011.4
20260504031959 3 264 0.0 0.0 0.00 0.00 0.00 80 1011.4
20260504031000 3 264 0.0 0.0 0.00 0.00 0.00 76 1011.5
20260504025001 4 264 0.0 0.0 0.00 0.00 0.00 72 1011.4
20260504024001 5 264 0.0 0.0 0.00 0.00 0.00 71 1011.5
20260504023000 5 264 0.0 0.0 0.00 0.00 0.00 71 1011.5
20260504021001 5 264 0.0 0.0 0.00 0.00 0.00 72 1011.5
20260504020000 5 263 0.0 0.0 0.00 0.00 0.00 73 1011.4
20260504015001 5 224 0.0 0.0 0.00 0.00 0.00 70 1011.4
20260504014000 6 223 0.0 0.0 0.00 0.00 0.00 67 1011.3
20260504013000 6 265 0.0 0.0 0.00 0.00 0.00 65 1011.2
20260504012000 7 281 0.0 0.0 0.00 0.00 0.00 64 1011.2
20260504011000 7 281 0.0 0.0 0.00 0.00 0.00 62 1011.1
20260504005959 8 281 0.0 0.0 0.00 0.00 0.00 59 1010.9
20260504004959 8 281 0.0 0.0 0.00 0.00 0.00 55 1010.8
20260504003959 9 281 0.0 0.0 0.00 0.00 0.00 52 1010.8
20260504000959 12 278 1.6 4.8 0.00 0.00 0.00 41 1010.3
20260504000002 12 283 1.6 3.2 0.00 0.00 0.00 39 1010.3
20260503235001 12 261 3.2 8.0 0.00 0.00 0.00 38 1010.2
20260503234001 13 277 4.8 12.9 0.00 0.00 0.00 37 1010.2
20260503233000 13 348 8.0 22.5 0.00 0.00 0.00 36 1010.1
20260503232001 13 289 9.7 20.9 0.00 0.00 0.00 34 1010.2
20260503231001 13 262 14.5 32.2 0.00 0.00 0.00 34 1009.9
20260503225959 14 317 8.0 30.6 0.00 0.00 0.00 33 1009.9
20260503224000 14 342 12.9 25.7 0.00 0.00 0.00 32 1009.8
20260503223000 14 288 14.5 24.1 0.00 0.00 0.00 33 1009.8
20260503222001 15 285 9.7 22.5 0.00 0.00 0.00 31 1009.7
20260503221001 15 265 6.4 17.7 0.00 0.00 0.00 31 1009.7
20260503214959 14 9 11.3 22.5 0.00 0.00 0.00 30 1009.8
20260503213959 14 286 16.1 29.0 0.00 0.00 0.00 31 1009.7
20260503212959 14 174 11.3 32.2 0.00 0.00 0.00 29 1009.5
20260503211959 14 338 14.5 25.7 0.00 0.00 0.00 32 1009.5
20260503210959 14 312 14.5 37.0 0.00 0.00 0.00 32 1009.7
20260503210002 13 327 12.9 29.0 0.00 0.00 0.00 31 1009.6
20260503205000 13 271 16.1 33.8 0.00 0.00 0.00 32 1009.8
20260503204000 13 286 16.1 38.6 0.00 0.00 0.00 33 1009.8
20260503203001 13 344 16.1 33.8 0.00 0.00 0.00 31 1009.8
20260503201001 13 238 16.1 33.8 0.00 0.00 0.00 32 1010.0
20260503195959 12 327 20.9 40.2 0.00 0.00 0.00 32 1010.1
20260503195000 13 302 14.5 33.8 0.00 0.00 0.00 34 1010.0
20260503193959 12 279 17.7 38.6 0.00 0.00 0.00 33 1010.1
20260503193000 12 300 19.3 33.8 0.00 0.00 0.00 35 1010.2
20260503191959 13 326 16.1 41.8 0.00 0.00 0.00 32 1010.4
20260503191000 12 290 14.5 37.0 0.00 0.00 0.00 35 1010.4
20260503190000 11 317 14.5 30.6 0.00 0.00 0.00 37 1010.3
20260503185000 11 284 19.3 40.2 0.00 0.00 0.00 34 1010.7
20260503183959 12 287 16.1 40.2 0.00 0.00 0.00 36 1010.8
20260503182959 11 275 19.3 33.8 0.00 0.00 0.00 35 1010.7
20260503181959 11 311 16.1 32.2 0.00 0.00 0.00 36 1010.9
20260503180959 11 298 16.1 29.0 0.00 0.00 0.00 37 1010.9
20260503180001 11 355 19.3 45.1 0.00 0.00 0.00 37 1010.9
20260503174959 11 257 19.3 37.0 0.00 0.00 0.00 37 1010.9
20260503174000 11 306 17.7 35.4 0.00 0.00 0.00 36 1011.0
20260503172959 10 355 17.7 35.4 0.00 0.00 0.00 38 1011.1
20260503172000 10 314 17.7 41.8 0.00 0.00 0.00 40 1011.2
20260503150959 8 341 11.3 24.1 0.00 0.00 0.00 47 1012.1
20260503130959 7 333 12.9 27.4 0.00 0.00 0.00 55 1012.1